EN

Hourly Weather Oryava

Today, 16 May, Sunday

Time Temperature Precipitation Wind Pressure Humidity
00:00 +10°C° 0 mm 1 mps 687 mmHg 100%
01:00 +9°C° 0 mm 2 mps 687 mmHg 98%
02:00 +9°C° 0 mm 2 mps 687 mmHg 98%
03:00 +10°C° 0 mm 1 mps 687 mmHg 100%
04:00 +10°C° 0 mm 1 mps 686 mmHg 100%
05:00 +10°C° 0 mm 1 mps 686 mmHg 100%
06:00 +10°C° 0 mm 1 mps 686 mmHg 100%
07:00 +10°C° 0 mm 1 mps 687 mmHg 100%
08:00 +12°C° 0 mm 2 mps 687 mmHg 100%
09:00 +13°C° 0 mm 3 mps 687 mmHg 99%
10:00 +14°C° 0 mm 3 mps 688 mmHg 96%
11:00 +15°C° 0 mm 4 mps 687 mmHg 94%
12:00 +15°C° 0.1 mm 5 mps 687 mmHg 93%
13:00 +17°C° 0.4 mm 4 mps 687 mmHg 93%
14:00 +15°C° 0.4 mm 6 mps 686 mmHg 89%
15:00 +10°C° 0.4 mm 7 mps 686 mmHg 100%
16:00 +13°C° 0.1 mm 3 mps 685 mmHg 97%
17:00 +14°C° 0 mm 3 mps 685 mmHg 89%
18:00 +13°C° 0 mm 3 mps 685 mmHg 93%
19:00 +13°C° 0 mm 3 mps 685 mmHg 97%
20:00 +12°C° 0.1 mm 3 mps 685 mmHg 100%
21:00 +11°C° 0 mm 3 mps 685 mmHg 100%
22:00 +11°C° 0 mm 3 mps 686 mmHg 100%
23:00 +10°C° 0 mm 3 mps 686 mmHg 100%

Tomorrow, 17 May, Monday

Time Temperature Precipitation Wind Pressure Humidity
00:00 +10°C° 0 mm 2 mps 686 mmHg 100%
01:00 +10°C° 0 mm 2 mps 685 mmHg 100%
02:00 +10°C° 0 mm 2 mps 685 mmHg 100%
03:00 +10°C° 0 mm 2 mps 685 mmHg 100%
04:00 +10°C° 0 mm 1 mps 685 mmHg 100%
05:00 +10°C° 0 mm 1 mps 685 mmHg 100%
06:00 +10°C° 0 mm 1 mps 685 mmHg 100%
07:00 +10°C° 0 mm 2 mps 686 mmHg 100%
08:00 +10°C° 0 mm 2 mps 686 mmHg 100%
09:00 +13°C° 0 mm 1 mps 685 mmHg 100%
10:00 +14°C° 0 mm 2 mps 685 mmHg 100%
11:00 +14°C° 0 mm 2 mps 686 mmHg 98%
12:00 +14°C° 0 mm 3 mps 685 mmHg 97%
13:00 +16°C° 0 mm 2 mps 685 mmHg 95%
14:00 +14°C° 0 mm 4 mps 685 mmHg 94%
15:00 +14°C° 0 mm 4 mps 684 mmHg 99%
16:00 +14°C° 0 mm 3 mps 683 mmHg 96%
17:00 +15°C° 0 mm 1 mps 683 mmHg 95%
18:00 +15°C° 0 mm 1 mps 683 mmHg 92%
19:00 +15°C° 0 mm 2 mps 682 mmHg 92%
20:00 +14°C° 0 mm 2 mps 682 mmHg 94%
21:00 +14°C° 0 mm 1 mps 681 mmHg 94%
22:00 +11°C° 2 mm 4 mps 680 mmHg 100%
23:00 +11°C° 3.6 mm 1 mps 680 mmHg 100%

Day after tomorrow, 18 May, Tuesday

Time Temperature Precipitation Wind Pressure Humidity
00:00 +11°C° 0.1 mm 1 mps 679 mmHg 100%
01:00 +10°C° 0.1 mm 2 mps 679 mmHg 100%
02:00 +8°C° 3.5 mm 5 mps 679 mmHg 100%
03:00 +7°C° 0.7 mm 5 mps 680 mmHg 100%
04:00 +7°C° 1.3 mm 5 mps 680 mmHg 100%
05:00 +6°C° 2.4 mm 5 mps 681 mmHg 100%
06:00 +6°C° 2.7 mm 5 mps 681 mmHg 100%
07:00 +7°C° 2.2 mm 6 mps 681 mmHg 100%
08:00 +6°C° 1.8 mm 7 mps 682 mmHg 100%
09:00 +6°C° 1.4 mm 8 mps 682 mmHg 100%
10:00 +6°C° 0.6 mm 8 mps 683 mmHg 100%
11:00 +7°C° 0.3 mm 8 mps 683 mmHg 100%
12:00 +9°C° 1.2 mm 8 mps 683 mmHg 100%
13:00 +9°C° 2 mm 7 mps 683 mmHg 100%
14:00 +9°C° 1.1 mm 7 mps 683 mmHg 100%
15:00 +10°C° 0.5 mm 8 mps 684 mmHg 96%
16:00 +10°C° 0.2 mm 7 mps 683 mmHg 95%
17:00 +10°C° 1.9 mm 6 mps 683 mmHg 99%
18:00 +10°C° 0.2 mm 7 mps 684 mmHg 95%
19:00 +9°C° 0 mm 7 mps 684 mmHg 96%
20:00 +9°C° 0 mm 7 mps 684 mmHg 95%
21:00 +8°C° 0 mm 7 mps 684 mmHg 99%
22:00 +7°C° 0 mm 6 mps 684 mmHg 100%
23:00 +7°C° 0 mm 6 mps 684 mmHg 100%

19 May, Wednesday

Time Temperature Precipitation Wind Pressure Humidity
00:00 +7°C° 0 mm 6 mps 685 mmHg 100%
01:00 +7°C° 0 mm 6 mps 685 mmHg 100%
02:00 +5°C° 0 mm 6 mps 685 mmHg 100%
03:00 +5°C° 0 mm 6 mps 685 mmHg 100%
04:00 +5°C° 0 mm 6 mps 685 mmHg 100%
05:00 +5°C° 0 mm 6 mps 686 mmHg 100%
06:00 +6°C° 0 mm 5 mps 686 mmHg 100%
07:00 +6°C° 0 mm 5 mps 687 mmHg 100%
08:00 +6°C° 0 mm 5 mps 687 mmHg 100%
09:00 +7°C° 0 mm 5 mps 687 mmHg 100%
10:00 +8°C° 0 mm 5 mps 688 mmHg 100%
11:00 +8°C° 0 mm 4 mps 689 mmHg 100%
12:00 +8°C° 0 mm 4 mps 689 mmHg 100%
13:00 +10°C° 0 mm 4 mps 690 mmHg 94%
14:00 +11°C° 0.2 mm 4 mps 690 mmHg 97%
15:00 +12°C° 0 mm 3 mps 690 mmHg 90%
16:00 +12°C° 0 mm 3 mps 690 mmHg 87%
17:00 +11°C° 0.1 mm 3 mps 689 mmHg 90%
18:00 +11°C° 0 mm 4 mps 690 mmHg 88%
19:00 +11°C° 0 mm 4 mps 690 mmHg 95%
20:00 +10°C° 0 mm 3 mps 690 mmHg 100%
21:00 +9°C° 0 mm 3 mps 691 mmHg 100%
22:00 +8°C° 0 mm 3 mps 690 mmHg 100%
23:00 +8°C° 0 mm 2 mps 691 mmHg 100%

20 May, Thursday

Time Temperature Precipitation Wind Pressure Humidity
00:00 +7°C° 0 mm 2 mps 691 mmHg 100%
01:00 +7°C° 0 mm 2 mps 691 mmHg 100%
02:00 +7°C° 0 mm 2 mps 691 mmHg 100%
03:00 +7°C° 0 mm 2 mps 691 mmHg 100%
04:00 +6°C° 0 mm 2 mps 691 mmHg 100%
05:00 +7°C° 0 mm 1 mps 692 mmHg 100%
06:00 +6°C° 0 mm 2 mps 692 mmHg 100%
07:00 +8°C° 0 mm 1 mps 692 mmHg 100%
08:00 +8°C° 0 mm 1 mps 693 mmHg 100%
09:00 +9°C° 0 mm 0 mps 693 mmHg 100%
10:00 +11°C° 0 mm 1 mps 694 mmHg 100%
11:00 +12°C° 0 mm 2 mps 694 mmHg 93%
12:00 +13°C° 0 mm 2 mps 695 mmHg 80%
13:00 +14°C° 0 mm 2 mps 694 mmHg 79%
14:00 +13°C° 0 mm 3 mps 694 mmHg 85%
15:00 +14°C° 0 mm 2 mps 694 mmHg 84%
16:00 +13°C° 0.2 mm 3 mps 694 mmHg 87%
17:00 +13°C° 0 mm 3 mps 694 mmHg 86%
18:00 +13°C° 0 mm 3 mps 694 mmHg 85%
19:00 +12°C° 0 mm 3 mps 694 mmHg 85%
20:00 +11°C° 0 mm 3 mps 694 mmHg 99%
21:00 +10°C° 0 mm 3 mps 694 mmHg 100%
22:00 +9°C° 0 mm 3 mps 693 mmHg 100%
23:00 +9°C° 0 mm 3 mps 693 mmHg 100%

21 May, Friday

Time Temperature Precipitation Wind Pressure Humidity
00:00 +8°C° 0 mm 4 mps 693 mmHg 100%
01:00 +8°C° 0 mm 4 mps 693 mmHg 100%
02:00 +8°C° 0 mm 4 mps 693 mmHg 100%
03:00 +8°C° 0 mm 4 mps 693 mmHg 100%
04:00 +8°C° 0 mm 4 mps 693 mmHg 100%
05:00 +7°C° 0 mm 5 mps 693 mmHg 100%
06:00 +8°C° 0 mm 5 mps 693 mmHg 100%
07:00 +8°C° 0 mm 6 mps 693 mmHg 100%
08:00 +8°C° 0 mm 6 mps 693 mmHg 100%
09:00 +9°C° 0 mm 6 mps 693 mmHg 100%
10:00 +10°C° 0 mm 6 mps 693 mmHg 100%
11:00 +11°C° 0 mm 6 mps 693 mmHg 98%
12:00 +12°C° 0 mm 7 mps 693 mmHg 97%
13:00 +12°C° 0 mm 7 mps 693 mmHg 99%
14:00 +13°C° 0 mm 6 mps 693 mmHg 97%
15:00 +14°C° 0 mm 6 mps 693 mmHg 93%
16:00 +14°C° 0 mm 6 mps 693 mmHg 92%
17:00 +14°C° 0 mm 5 mps 693 mmHg 91%
18:00 +13°C° 0 mm 5 mps 692 mmHg 93%
19:00 +13°C° 0 mm 5 mps 691 mmHg 94%
20:00 +12°C° 0 mm 4 mps 691 mmHg 98%
21:00 +12°C° 0 mm 4 mps 691 mmHg 100%
22:00 +11°C° 0 mm 4 mps 691 mmHg 100%
23:00 +11°C° 0 mm 4 mps 690 mmHg 100%
Show more

We Need Your Consent

Meteoprog and our Service Providers may store and access personal data such as cookies, device identifiers or other similar technologies on your device and process such data to personalise content and ads, as well as provide social media features and to analyse the traffic.

  • Store and/or access information on your device

    Cookies, device identifiers or other information can be stored or accessed on your device for the purposes indicated above.

  • Personalised ads and content, ad and content measurement, audience insights, and products development

    Ads and content can be personalised based on a profile. More data can be added to better personalise ads and content. Ad and content performance can be measured. Insights about the audience who saw the ads and content can be derived. Such data can be used to develop or improve user’s experience, systems and software.

By clicking ‘I Agree’ you will allow the use of indicated cookies, device identifiers, web beacons or other similar technologies. Your settings can be changed in the browser on your device.

For certain purposes, legitimate interests may be relied on, rather than consent. You can read more about this in our Privacy and Cookie Policy.